Estación de Olivar Alto

Ultimos registro cada 15 minutos 61
Estación Fecha / Hora Temperatura Humedad Lluvia Velocidad Dirección Radiación Presion
61 Olivar Alto 03-05-2026 15:15 23,8 38 0 0 154 272 1017,7
60 Olivar Alto 03-05-2026 15:00 24,1 36 0 1,3 174 213 1017,7
59 Olivar Alto 03-05-2026 14:45 24,7 36 0 0 161 239 1017,8
58 Olivar Alto 03-05-2026 14:30 24,7 35 0 0,4 150 352 1017,5
57 Olivar Alto 03-05-2026 14:15 24,8 37 0 1,3 77 452 1017,6
56 Olivar Alto 03-05-2026 14:00 24,8 36 0 0,4 231 457 1017,9
55 Olivar Alto 03-05-2026 13:45 24,8 35 0 0,4 229 462 1017,8
54 Olivar Alto 03-05-2026 13:30 23,7 37 0 1,3 107 622 1018,1
53 Olivar Alto 03-05-2026 13:15 23,7 40 0 1,3 230 587 1018,4
52 Olivar Alto 03-05-2026 13:00 23,2 44 0 1,3 240 652 1018,4
51 Olivar Alto 03-05-2026 12:45 22,4 46 0 0,4 258 652 1018,7
50 Olivar Alto 03-05-2026 12:30 21,7 48 0 0,4 223 580 1019
49 Olivar Alto 03-05-2026 12:15 21,5 50 0 0,4 257 338 1019
48 Olivar Alto 03-05-2026 12:00 20,8 53 0 2,2 236 824 1019,2
47 Olivar Alto 03-05-2026 11:45 20,1 54 0 0,9 240 290 1019,4
46 Olivar Alto 03-05-2026 11:30 19,9 51 0 0 267 482 1019,6
45 Olivar Alto 03-05-2026 11:00 19,7 53 0 1,3 259 527 1019,6
44 Olivar Alto 03-05-2026 10:45 19,1 54 0 0 232 492 1019,4
43 Olivar Alto 03-05-2026 10:30 18,1 56 0 0,4 307 466 1019,2
42 Olivar Alto 03-05-2026 10:15 17,3 58 0 0,9 344 443 1019,3
41 Olivar Alto 03-05-2026 10:00 16,2 63 0 0,4 347 411 1019,4
40 Olivar Alto 03-05-2026 09:45 14,9 67 0 0 13 376 1019,3
39 Olivar Alto 03-05-2026 09:30 13,1 75 0 0 347 343 1019
38 Olivar Alto 03-05-2026 09:15 11,5 82 0 0 1 287 1019,1
37 Olivar Alto 03-05-2026 09:00 9,7 87 0 0 42 134 1019,1
36 Olivar Alto 03-05-2026 08:45 8,2 90 0 0 344 25 1019
35 Olivar Alto 03-05-2026 08:30 7,3 92 0 0,9 335 23 1019,2
34 Olivar Alto 03-05-2026 08:15 6,8 93 0 0,9 341 21 1019
33 Olivar Alto 03-05-2026 08:00 6,4 95 0 0,9 337 18 1018,7
32 Olivar Alto 03-05-2026 07:45 5,9 94 0 0 144 14 1018,3
31 Olivar Alto 03-05-2026 07:30 5,8 94 0 0 144 9 1018,2
30 Olivar Alto 03-05-2026 07:15 5,5 93 0 0 144 0 1018,1
29 Olivar Alto 03-05-2026 07:00 5,5 94 0 0 144 0 1018
28 Olivar Alto 03-05-2026 06:45 5,3 94 0 0 144 0 1018,1
27 Olivar Alto 03-05-2026 06:30 5 92 0 0 144 0 1018
26 Olivar Alto 03-05-2026 06:15 5,2 93 0 0 144 0 1018,1
25 Olivar Alto 03-05-2026 06:00 5,2 90 0 0 144 0 1018,3
24 Olivar Alto 03-05-2026 05:45 5,8 90 0 0 144 0 1018,5
23 Olivar Alto 03-05-2026 05:30 6,4 92 0 0 144 0 1018,2
22 Olivar Alto 03-05-2026 05:15 6,4 92 0 0 144 0 1018,1
21 Olivar Alto 03-05-2026 05:00 6,6 90 0 0 146 0 1018,1
20 Olivar Alto 03-05-2026 04:45 7,2 90 0 0 146 0 1017,8
19 Olivar Alto 03-05-2026 04:30 7,4 91 0 0 133 0 1017,6
18 Olivar Alto 03-05-2026 04:15 7,3 91 0 0 140 0 1017,6
17 Olivar Alto 03-05-2026 04:00 7,3 91 0 0 140 0 1017,9
16 Olivar Alto 03-05-2026 03:45 7,4 91 0 0 140 0 1018,3
15 Olivar Alto 03-05-2026 03:30 7,4 92 0 0 140 0 1018,6
14 Olivar Alto 03-05-2026 03:15 7,1 91 0 0 140 0 1018,6
13 Olivar Alto 03-05-2026 03:00 6,9 91 0 0 140 0 1018,7
12 Olivar Alto 03-05-2026 02:45 6,8 90 0 0 140 0 1018,6
11 Olivar Alto 03-05-2026 02:30 7,1 90 0 0 152 0 1018,5
10 Olivar Alto 03-05-2026 02:15 7,4 88 0 0 152 0 1018,5
9 Olivar Alto 03-05-2026 02:00 8 87 0 0 152 0 1018,2
8 Olivar Alto 03-05-2026 01:45 8,6 85 0 0 152 0 1018
7 Olivar Alto 03-05-2026 01:30 9,1 85 0 0 153 0 1017,9
6 Olivar Alto 03-05-2026 01:15 9,4 86 0 0 153 0 1017,9
5 Olivar Alto 03-05-2026 01:00 9,1 88 0 0 153 0 1018,1
4 Olivar Alto 03-05-2026 00:45 8,1 91 0 0 153 0 1018,2
3 Olivar Alto 03-05-2026 00:30 7,1 90 0 0 153 0 1018,3
2 Olivar Alto 03-05-2026 00:15 7,1 90 0 0 153 0 1018,6
1 Olivar Alto 03-05-2026 00:00 7,1 89 0 0 153 0 1018,8